AirNav   Everest Fuels
 
 1302 users online  

CN12 Williams Gliderport
Williams, California, USA

GOING TO WILLIAMS?


FAA INFORMATION EFFECTIVE 10 SEPTEMBER 2020

Location

FAA Identifier: CN12
Lat/Long: 39-09-48.6080N 122-07-53.9080W
39-09.810133N 122-07.898467W
39.1635022,-122.1316411
(estimated)
Elevation: 68 ft. / 21 m (estimated)
Variation: 16E (1985)
From city: 1 mile NE of WILLIAMS, CA
Time zone: UTC -7 (UTC -8 during Standard Time)
Zip code: 95987

Gliderport Operations

Gliderport use: Private use. Permission required prior to landing
Control tower: no
ARTCC: OAKLAND CENTER
FSS: RANCHO MURIETA FLIGHT SERVICE STATION
Attendance: UNATNDD
Wind indicator: yes
Segmented circle: no
Landing fee: yes

Nearby radio navigation aids

VOR radial/distance  VOR name  Freq  Var
ILAr301/7.4WILLIAMS VORTAC114.4018E
MYVr263/26.3MARYSVILLE VOR/DME110.8016E

Gliderport Services

Airframe service: NONE
Powerplant service: NONE

Runway Information

Runway 16/34

Dimensions: 2500 x 40 ft. / 762 x 12 m
Surface: asphalt
RUNWAY 16  RUNWAY 34
Traffic pattern: rightright

Gliderport Ownership and Management from official FAA records

Ownership: Privately-owned
Owner: VACAVILLE AERO SVCS INC
2668 HUSTED ROAD
WILLIAMS, CA 95987-5105
Phone 530-473-5600
Manager: BRETT R. MAYES
2668 HUSTED ROAD
WILLIAMS, CA 95987-5105
Phone 530-473-5600
ADD'L CONTACT NOELLE MAYES, 530-330-4354, NOELLE@WILLIAMSSOARING.COM

Gliderport Operational Statistics

Aircraft based on the field: 59
Single engine airplanes: 7
Multi engine airplanes: 2
Gliders airplanes: 50
    

Additional Remarks

RWY/APRON - POOR; UNPAVED PORTION - POOR/SOFT WHEN WET.
FOR CD CTC OAKLAND ARTCC AT 510-745-3380.

Instrument Procedures

There are no published instrument procedures at CN12.

Some nearby airports with instrument procedures:

O08 - Colusa County Airport (6 nm E)
KWLW - Willows-Glenn County Airport (22 nm N)
KMYV - Yuba County Airport (26 nm E)
KOVE - Oroville Municipal Airport (31 nm NE)
O41 - Watts-Woodland Airport (32 nm S)
 
Loc | Ops | Rwys | IFR | FBO | Links
Com | Nav | Svcs | Stats | Notes

Sonoma Jet Center
 
Area around CN12 (Williams Gliderport)
 
Road maps at: MapQuest Bing Google
 
Aerial photo
WARNING: Photo may not be current or correct
Aerial photo of CN12 (Williams Gliderport)
Photo by Kempton Izuno

Do you have a better or more recent aerial photo of Williams Gliderport that you would like to share? If so, please send us your photo.

 
Sectional chart

 
Airport distance calculator
Flying to Williams Gliderport? Find the distance to fly.

From to CN12

Sunrise and sunset
Times for 20-Sep-2020
 Local
(UTC-7)
 Zulu
(UTC)
Morning civil twilight06:3013:30
Sunrise06:5613:56
Sunset19:0702:07
Evening civil twilight19:3402:34

Current date and time
Zulu (UTC)  20-Sep-2020 18:58:39
Local (UTC-7)  20-Sep-2020 11:58:39
 
METAR
KMYV 
27nm E 
201853Z AUTO 00000KT 8SM CLR 26/12 A2990 RMK AO2 SLP126 T02560117
KOVE 
31nm NE 
201853Z AUTO 00000KT 5SM HZ CLR 27/11 A2991 RMK AO2 SLP130 T02670111
KBAB 
32nm E 
201758Z AUTO 00000KT 8SM CLR 25/11 A2989 RMK AO2 SLP124 T02530107 10254 20124 50004 $
KSMF 
37nm SE 
201853Z 34003KT 8SM BKN250 26/12 A2989 RMK AO2 SLP119 T02560122
KLHM 
39nm SE 
201835Z AUTO 00000KT 10SM CLR 26/11 A2989 RMK AO1
KCIC 
40nm N 
201749Z 18008KT 6SM FUHZ SKC 24/10 A2993
KEDU 
41nm SE 
201835Z AUTO 35007KT 9SM CLR 27/07 A2990 RMK AO1
KMCC 
45nm SE 
201835Z AUTO 00000KT 10SM CLR 26/11 A2990 RMK AO2
KVCB 
48nm S 
201853Z AUTO VRB04KT 8SM CLR 30/08 A2990 RMK AO2 SLP124 T03000078
KSAC 
50nm SE 
201853Z 34004KT 7SM CLR 26/09 A2989 RMK AO2 SLP122 T02610094
TAF
KSMF 
37nm SE 
201720Z 2018/2118 VRB05KT P6SM SCT250 FM210200 18007KT P6SM SKC
NOTAMs
Click for the latest NOTAMs
NOTAMs are issued by the DoD/FAA and will open in a separate window not controlled by AirNav.

 

 
 

Would you like to see your business listed on this page?

 If your business provides an interesting product or service to pilots, flight crews, aircraft, or users of the Williams Gliderport, you should consider listing it here.  To start the listing process, click on the button below
 
Add a business
 

Other Pages about Williams Gliderport

Update a link
 
Copyright © AirNav, LLC. All rights reserved. Privacy Policy  Contact